Weather History for Riverside March, CA

Change the Weather History Date:

Saturday, May 17, 2014

  Actual Average Record
Temperature  
Mean Temperature 74 °F -  
Max Temperature 92 °F 78 °F 101 °F (2008)
Min Temperature 57 °F 51 °F 44 °F (1998)
Cooling Degree Days 9    
Growing Degree Days 24 (Base 50)    
Moisture  
Dew Point 38 °F    
Average Humidity 29    
Maximum Humidity 62    
Minimum Humidity 14    
Precipitation  
Precipitation 0.00 in - - ()
Sea Level Pressure  
Sea Level Pressure 29.87 in    
Wind  
Wind Speed 4 mph (NW)    
Max Wind Speed 17 mph    
Max Gust Speed 20 mph    
Visibility 10 miles    
Events      
Averages and records for this station are not official NWS values.
T = Trace of Precipitation, MM = Missing Value Source: NWS Daily Summary

Daily Weather History Graph

Daily Weather History Graph

Search for Another Location

Airport:

Trip Planner

Search our weather history database for the weather conditions in past years. The results will help you decide how hot, cold, wet, or windy it might be!

Date:

Astronomy

May. 17, 2014 Rise Set
Actual Time 5:46 AM PDT 7:44 PM PDT
Civil Twilight 5:18 AM PDT 8:12 PM PDT
Nautical Twilight 4:44 AM PDT 8:46 PM PDT
Astronomical Twilight 4:08 AM PDT 9:22 PM PDT
Moon 10:50 PM PDT (5/17) 8:33 AM PDT (5/17)
Length of Visible Light 14h 54m
Length of Day
13h 58m
Waning Gibbous, 88% of the Moon is Illuminated
May 17
Waning Gibbous
May 21
Last Quarter
May 28
New
Jun 5
First Quarter
Jun 12
Full

Hourly Weather History & Observations

Time (PDT) Temp. Dew Point Humidity Pressure Visibility Wind Dir Wind Speed Gust Speed Precip Events Conditions
12:58 AM 65.7 °F 32.9 °F 30% 29.91 in 10.0 mi Calm Calm - N/A   Clear
1:58 AM 62.8 °F 37.8 °F 40% 29.90 in 10.0 mi North 3.5 mph - N/A   Clear
2:58 AM 61.0 °F 33.6 °F 36% 29.89 in 10.0 mi Calm Calm - N/A   Clear
3:58 AM 63.5 °F 34.7 °F 34% 29.88 in 10.0 mi Calm Calm - N/A   Clear
4:58 AM 57.7 °F 35.2 °F 43% 29.87 in 9.0 mi Calm Calm - N/A   Clear
5:58 AM 57.6 °F 32.5 °F 39% 29.88 in 9.0 mi Calm Calm - N/A   Clear
6:58 AM 60.3 °F 34.2 °F 38% 29.89 in 8.0 mi Calm Calm - N/A   Clear
7:58 AM 69.6 °F 34.0 °F 27% 29.90 in 10.0 mi Variable 3.5 mph - N/A   Clear
8:58 AM 75.7 °F 34.0 °F 22% 29.90 in 10.0 mi SE 6.9 mph - N/A   Clear
9:58 AM 80.8 °F 34.3 °F 19% 29.90 in 10.0 mi ESE 5.8 mph - N/A   Clear
10:58 AM 85.1 °F 34.7 °F 16% 29.88 in 10.0 mi Variable 2.3 mph - 0.00 in   Clear
11:10 AM 86.0 °F 33.8 °F 15% 29.92 in 10.0 mi Variable 1.2 mph - N/A   Partly Cloudy
11:58 AM 89.4 °F 36.3 °F 15% 29.87 in 10.0 mi West 8.1 mph - N/A   Clear
12:58 PM 90.5 °F 35.6 °F 14% 29.86 in 10.0 mi WNW 11.5 mph 19.6 mph N/A   Clear
1:58 PM 91.6 °F 39.9 °F 16% 29.84 in 10.0 mi NW 13.8 mph - N/A   Clear
2:58 PM 91.8 °F 43.7 °F 19% 29.83 in 10.0 mi WNW 13.8 mph - N/A   Scattered Clouds
3:58 PM 90.5 °F 44.2 °F 20% 29.82 in 10.0 mi NW 17.3 mph - N/A   Scattered Clouds
4:58 PM 88.5 °F 40.5 °F 18% 29.82 in 10.0 mi WNW 16.1 mph - N/A   Scattered Clouds
5:58 PM 85.8 °F 40.1 °F 20% 29.82 in 10.0 mi NW 13.8 mph - N/A   Clear
6:58 PM 81.5 °F 44.8 °F 27% 29.83 in 10.0 mi NNW 9.2 mph - N/A   Clear
7:58 PM 76.3 °F 43.0 °F 30% 29.83 in 10.0 mi NW 9.2 mph - N/A   Clear
8:58 PM 72.7 °F 45.9 °F 38% 29.83 in 10.0 mi SE 6.9 mph - N/A   Clear
9:58 PM 68.2 °F 39.9 °F 36% 29.86 in 10.0 mi ESE 5.8 mph - N/A   Clear
10:58 PM 66.4 °F 43.3 °F 43% 29.87 in 10.0 mi SE 2.3 mph - N/A   Clear
11:58 PM 61.5 °F 48.4 °F 62% 29.86 in 10.0 mi SE 4.6 mph - N/A   Clear